owner,sensor,date,latitude,longitude,vertical_datum,direction_of_sea_water_velocity,sea_water_speed,upward_sea_water_velocity,qcFlag 
TABS,ioos:station:wmo:42048:1,2006-07-01T00:00:00Z,27.9396,-96.8429,2.0,215.9332028,13.4617978,-99999.0,'11111222,11111222,99999999' 
TABS,ioos:station:wmo:42048:1,2006-07-01T00:30:00Z,27.9396,-96.8429,2.0,222.2186648,12.67921528,-99999.0,'11111222,11111222,99999999' 
TABS,ioos:station:wmo:42048:1,2006-07-01T01:00:00Z,27.9396,-96.8429,2.0,212.3897342,11.36873344,-99999.0,'11111222,11111222,99999999' 
TABS,ioos:station:wmo:42048:1,2006-07-01T01:30:00Z,27.9396,-96.8429,2.0,224.0102757,12.69445942,-99999.0,'11111222,11111222,99999999' 
TABS,ioos:station:wmo:42048:1,2006-07-01T02:00:00Z,27.9396,-96.8429,2.0,211.2268244,11.93985762,-99999.0,'11111222,11111222,99999999' 
TABS,ioos:station:wmo:42048:1,2006-07-01T02:30:00Z,27.9396,-96.8429,2.0,212.2443177,13.96347378,-99999.0,'11111222,11111222,99999999' 
TABS,ioos:station:wmo:42048:1,2006-07-01T03:00:00Z,27.9396,-96.8429,2.0,222.8555964,13.04110808,-99999.0,'11111222,11111222,99999999' 
TABS,ioos:station:wmo:42048:1,2006-07-01T03:30:00Z,27.9396,-96.8429,2.0,221.0814446,8.795754658,-99999.0,'11133222,11111222,99999999' 
TABS,ioos:station:wmo:42048:1,2006-07-01T04:00:00Z,27.9396,-96.8429,2.0,200.8946956,6.925445834,-99999.0,'11133222,11111222,99999999' 
TABS,ioos:station:wmo:42048:1,2006-07-01T04:30:00Z,27.9396,-96.8429,2.0,206.3307078,9.852197724,-99999.0,'11133222,11111222,99999999' 
TABS,ioos:station:wmo:42048:1,2006-07-01T05:00:00Z,27.9396,-96.8429,2.0,218.5450471,10.94467907,-99999.0,'11111222,11111222,99999999' 
TABS,ioos:station:wmo:42048:1,2006-07-01T05:30:00Z,27.9396,-96.8429,2.0,215.4796847,9.234717104,-99999.0,'11133222,11111222,99999999' 
TABS,ioos:station:wmo:42048:1,2006-07-01T06:00:00Z,27.9396,-96.8429,2.0,205.3983878,5.71210119,-99999.0,'11133222,11111222,99999999' 
TABS,ioos:station:wmo:42048:1,2006-07-01T06:30:00Z,27.9396,-96.8429,2.0,204.6782135,8.694072694,-99999.0,'11133222,11111222,99999999' 
TABS,ioos:station:wmo:42048:1,2006-07-01T07:00:00Z,27.9396,-96.8429,2.0,195.155027,9.562578104,-99999.0,'11133222,11111222,99999999' 
TABS,ioos:station:wmo:42048:1,2006-07-01T07:30:00Z,27.9396,-96.8429,2.0,209.5340269,7.424769357,-99999.0,'11133222,11111222,99999999' 
TABS,ioos:station:wmo:42048:1,2006-07-01T08:00:00Z,27.9396,-96.8429,2.0,162.8012885,6.594884381,-99999.0,'11133222,11111222,99999999' 
TABS,ioos:station:wmo:42048:1,2006-07-01T08:30:00Z,27.9396,-96.8429,2.0,199.1008937,8.159227905,-99999.0,'11133222,11111222,99999999' 
TABS,ioos:station:wmo:42048:1,2006-07-01T09:00:00Z,27.9396,-96.8429,2.0,181.2529319,3.200765533,-99999.0,'11133222,11111222,99999999' 
TABS,ioos:station:wmo:42048:1,2006-07-01T09:30:00Z,27.9396,-96.8429,2.0,179.9997895,4.31,-99999.0,'11133222,11111222,99999999' 
TABS,ioos:station:wmo:42048:1,2006-07-01T10:00:00Z,27.9396,-96.8429,2.0,214.4386983,3.819437131,-99999.0,'11133222,11111222,99999999' 
TABS,ioos:station:wmo:42048:1,2006-07-01T10:30:00Z,27.9396,-96.8429,2.0,222.7993763,6.814462561,-99999.0,'11133222,11111222,99999999' 
TABS,ioos:station:wmo:42048:1,2006-07-01T11:00:00Z,27.9396,-96.8429,2.0,203.9622225,5.219894635,-99999.0,'11133222,11111222,99999999' 
TABS,ioos:station:wmo:42048:1,2006-07-01T11:30:00Z,27.9396,-96.8429,2.0,176.319687,6.543492951,-99999.0,'11133222,11111222,99999999' 
TABS,ioos:station:wmo:42048:1,2006-07-01T12:00:00Z,27.9396,-96.8429,2.0,181.0695009,9.641680351,-99999.0,'11133222,11111222,99999999' 
TABS,ioos:station:wmo:42048:1,2006-07-01T12:30:00Z,27.9396,-96.8429,2.0,188.6138402,10.8827616,-99999.0,'11111222,11111222,99999999' 
TABS,ioos:station:wmo:42048:1,2006-07-01T13:00:00Z,27.9396,-96.8429,2.0,186.6415664,14.26574218,-99999.0,'11111222,11111222,99999999' 
TABS,ioos:station:wmo:42048:1,2006-07-01T13:30:00Z,27.9396,-96.8429,2.0,193.9295193,15.66055235,-99999.0,'11111222,11111222,99999999' 
TABS,ioos:station:wmo:42048:1,2006-07-01T14:00:00Z,27.9396,-96.8429,2.0,200.3862952,18.19997802,-99999.0,'11111222,11111222,99999999' 
TABS,ioos:station:wmo:42048:1,2006-07-01T14:30:00Z,27.9396,-96.8429,2.0,200.3894549,17.33620777,-99999.0,'11111222,11111222,99999999' 
TABS,ioos:station:wmo:42048:1,2006-07-01T15:00:00Z,27.9396,-96.8429,2.0,196.9061012,18.01874579,-99999.0,'11111222,11111222,99999999' 
TABS,ioos:station:wmo:42048:1,2006-07-01T15:30:00Z,27.9396,-96.8429,2.0,202.2525022,19.32962752,-99999.0,'11111222,11111222,99999999' 
TABS,ioos:station:wmo:42048:1,2006-07-01T16:00:00Z,27.9396,-96.8429,2.0,210.7685564,19.15650281,-99999.0,'11111222,11111222,99999999' 
TABS,ioos:station:wmo:42048:1,2006-07-01T16:30:00Z,27.9396,-96.8429,2.0,210.4078367,21.7521884,-99999.0,'11111222,11111222,99999999' 
TABS,ioos:station:wmo:42048:1,2006-07-01T17:00:00Z,27.9396,-96.8429,2.0,211.9667431,19.00152625,-99999.0,'11111222,11111222,99999999' 
TABS,ioos:station:wmo:42048:1,2006-07-01T17:30:00Z,27.9396,-96.8429,2.0,217.9142133,21.6115918,-99999.0,'11111222,11111222,99999999' 
TABS,ioos:station:wmo:42048:1,2006-07-01T18:00:00Z,27.9396,-96.8429,2.0,205.2730369,22.81369106,-99999.0,'11111222,11111222,99999999' 
TABS,ioos:station:wmo:42048:1,2006-07-01T18:30:00Z,27.9396,-96.8429,2.0,203.5507848,22.19908557,-99999.0,'11111222,11111222,99999999' 
TABS,ioos:station:wmo:42048:1,2006-07-01T19:00:00Z,27.9396,-96.8429,2.0,207.3608512,20.27862175,-99999.0,'11111222,11111222,99999999' 
TABS,ioos:station:wmo:42048:1,2006-07-01T19:30:00Z,27.9396,-96.8429,2.0,197.700624,25.9169925,-99999.0,'11111222,11111222,99999999' 
TABS,ioos:station:wmo:42048:1,2006-07-01T20:00:00Z,27.9396,-96.8429,2.0,204.0515407,28.65818033,-99999.0,'11111222,11111222,99999999' 
TABS,ioos:station:wmo:42048:1,2006-07-01T20:30:00Z,27.9396,-96.8429,2.0,210.8523742,24.76444225,-99999.0,'11111222,11111222,99999999' 
TABS,ioos:station:wmo:42048:1,2006-07-01T21:00:00Z,27.9396,-96.8429,2.0,219.0577234,24.04353135,-99999.0,'11111222,11111222,99999999' 
TABS,ioos:station:wmo:42048:1,2006-07-01T21:30:00Z,27.9396,-96.8429,2.0,229.2458625,30.56018652,-99999.0,'11111222,11111222,99999999' 
TABS,ioos:station:wmo:42048:1,2006-07-01T22:00:00Z,27.9396,-96.8429,2.0,225.6546673,34.0211302,-99999.0,'11111222,11111222,99999999' 
TABS,ioos:station:wmo:42048:1,2006-07-01T22:30:00Z,27.9396,-96.8429,2.0,226.8939625,33.5847123,-99999.0,'11111222,11111222,99999999' 
TABS,ioos:station:wmo:42048:1,2006-07-01T23:00:00Z,27.9396,-96.8429,2.0,229.1416313,30.74043916,-99999.0,'11111222,11111222,99999999' 
TABS,ioos:station:wmo:42048:1,2006-07-01T23:30:00Z,27.9396,-96.8429,2.0,237.4550186,28.71979457,-99999.0,'11111222,11111222,99999999' 
TABS,ioos:station:wmo:42048:1,2006-07-02T00:00:00Z,27.9396,-96.8429,2.0,236.8121308,34.78381376,-99999.0,'11111222,11111222,99999999' 
TABS,ioos:station:wmo:42048:1,2006-07-02T00:30:00Z,27.9396,-96.8429,2.0,239.1356236,32.51446601,-99999.0,'11111222,11111222,99999999' 
TABS,ioos:station:wmo:42048:1,2006-07-02T01:00:00Z,27.9396,-96.8429,2.0,229.9469361,35.91339861,-99999.0,'11111222,11111222,99999999' 
TABS,ioos:station:wmo:42048:1,2006-07-02T01:30:00Z,27.9396,-96.8429,2.0,229.1035502,34.77983611,-99999.0,'11111222,11111222,99999999' 
TABS,ioos:station:wmo:42048:1,2006-07-02T02:00:00Z,27.9396,-96.8429,2.0,225.2012867,40.19219825,-99999.0,'11111222,11111222,99999999' 
TABS,ioos:station:wmo:42048:1,2006-07-02T02:30:00Z,27.9396,-96.8429,2.0,234.3247907,38.83844745,-99999.0,'11111222,11111222,99999999' 
TABS,ioos:station:wmo:42048:1,2006-07-02T03:00:00Z,27.9396,-96.8429,2.0,233.4731053,29.70453332,-99999.0,'11111222,11111222,99999999' 
TABS,ioos:station:wmo:42048:1,2006-07-02T03:30:00Z,27.9396,-96.8429,2.0,235.3386525,32.89844525,-99999.0,'11111222,11111222,99999999' 
TABS,ioos:station:wmo:42048:1,2006-07-02T04:00:00Z,27.9396,-96.8429,2.0,235.0761204,34.27177264,-99999.0,'11111222,11111222,99999999' 
TABS,ioos:station:wmo:42048:1,2006-07-02T04:30:00Z,27.9396,-96.8429,2.0,236.0935976,36.05022191,-99999.0,'11111222,11111222,99999999' 
TABS,ioos:station:wmo:42048:1,2006-07-02T05:00:00Z,27.9396,-96.8429,2.0,235.7623883,34.26816744,-99999.0,'11111222,11111222,99999999' 
TABS,ioos:station:wmo:42048:1,2006-07-02T05:30:00Z,27.9396,-96.8429,2.0,234.7741276,27.73942321,-99999.0,'11111222,11111222,99999999' 
TABS,ioos:station:wmo:42048:1,2006-07-02T06:00:00Z,27.9396,-96.8429,2.0,234.55424,27.43447831,-99999.0,'11111222,11111222,99999999' 
TABS,ioos:station:wmo:42048:1,2006-07-02T06:30:00Z,27.9396,-96.8429,2.0,228.4955301,27.9473666,-99999.0,'11111222,11111222,99999999' 
TABS,ioos:station:wmo:42048:1,2006-07-02T07:00:00Z,27.9396,-96.8429,2.0,224.93462,31.13393165,-99999.0,'11111222,11111222,99999999' 
TABS,ioos:station:wmo:42048:1,2006-07-02T07:30:00Z,27.9396,-96.8429,2.0,225.0629594,25.61142323,-99999.0,'11111222,11111222,99999999' 
TABS,ioos:station:wmo:42048:1,2006-07-02T08:00:00Z,27.9396,-96.8429,2.0,223.3221763,26.57031803,-99999.0,'11111222,11111222,99999999' 
TABS,ioos:station:wmo:42048:1,2006-07-02T08:30:00Z,27.9396,-96.8429,2.0,231.2037519,27.61159901,-99999.0,'11111222,11111222,99999999' 
TABS,ioos:station:wmo:42048:1,2006-07-02T09:00:00Z,27.9396,-96.8429,2.0,226.8165656,27.20900586,-99999.0,'11111222,11111222,99999999' 
TABS,ioos:station:wmo:42048:1,2006-07-02T09:30:00Z,27.9396,-96.8429,2.0,222.6056673,25.05344687,-99999.0,'11111222,11111222,99999999' 
TABS,ioos:station:wmo:42048:1,2006-07-02T10:00:00Z,27.9396,-96.8429,2.0,224.6785237,25.22996631,-99999.0,'11111222,11111222,99999999' 
TABS,ioos:station:wmo:42048:1,2006-07-02T10:30:00Z,27.9396,-96.8429,2.0,224.2795256,20.25313803,-99999.0,'11111222,11111222,99999999' 
TABS,ioos:station:wmo:42048:1,2006-07-02T11:00:00Z,27.9396,-96.8429,2.0,217.5236547,23.47752968,-99999.0,'11111222,11111222,99999999' 
TABS,ioos:station:wmo:42048:1,2006-07-02T11:30:00Z,27.9396,-96.8429,2.0,212.4641278,25.93262038,-99999.0,'11111222,11111222,99999999' 
TABS,ioos:station:wmo:42048:1,2006-07-02T12:00:00Z,27.9396,-96.8429,2.0,220.9283309,18.22570986,-99999.0,'11111222,11111222,99999999' 
TABS,ioos:station:wmo:42048:1,2006-07-02T12:30:00Z,27.9396,-96.8429,2.0,211.2543519,24.99795592,-99999.0,'11111222,11111222,99999999' 
TABS,ioos:station:wmo:42048:1,2006-07-02T13:00:00Z,27.9396,-96.8429,2.0,218.073627,26.26980015,-99999.0,'11111222,11111222,99999999' 
TABS,ioos:station:wmo:42048:1,2006-07-02T13:30:00Z,27.9396,-96.8429,2.0,222.929266,24.85688838,-99999.0,'11111222,11111222,99999999' 
TABS,ioos:station:wmo:42048:1,2006-07-02T14:00:00Z,27.9396,-96.8429,2.0,217.3532671,22.7448104,-99999.0,'11111222,11111222,99999999' 
TABS,ioos:station:wmo:42048:1,2006-07-02T14:30:00Z,27.9396,-96.8429,2.0,211.4978613,20.59444585,-99999.0,'11111222,11111222,99999999' 
TABS,ioos:station:wmo:42048:1,2006-07-02T15:00:00Z,27.9396,-96.8429,2.0,211.4782682,23.28701784,-99999.0,'11111222,11111222,99999999' 
TABS,ioos:station:wmo:42048:1,2006-07-02T15:30:00Z,27.9396,-96.8429,2.0,212.967912,21.57400287,-99999.0,'11111222,11111222,99999999' 
TABS,ioos:station:wmo:42048:1,2006-07-02T16:00:00Z,27.9396,-96.8429,2.0,214.0586788,20.67687839,-99999.0,'11111222,11111222,99999999' 
TABS,ioos:station:wmo:42048:1,2006-07-02T16:30:00Z,27.9396,-96.8429,2.0,217.8454073,22.31323598,-99999.0,'11111222,11111222,99999999' 
TABS,ioos:station:wmo:42048:1,2006-07-02T17:00:00Z,27.9396,-96.8429,2.0,215.87055,20.99119101,-99999.0,'11111222,11111222,99999999' 
TABS,ioos:station:wmo:42048:1,2006-07-02T17:30:00Z,27.9396,-96.8429,2.0,225.811583,22.95499074,-99999.0,'11111222,11111222,99999999' 
TABS,ioos:station:wmo:42048:1,2006-07-02T18:00:00Z,27.9396,-96.8429,2.0,231.0547078,21.6521985,-99999.0,'11111222,11111222,99999999' 
TABS,ioos:station:wmo:42048:1,2006-07-02T18:30:00Z,27.9396,-96.8429,2.0,225.4574763,23.00998914,-99999.0,'11111222,11111222,99999999' 
TABS,ioos:station:wmo:42048:1,2006-07-02T19:00:00Z,27.9396,-96.8429,2.0,231.9319555,23.72718483,-99999.0,'11111222,11111222,99999999' 
TABS,ioos:station:wmo:42048:1,2006-07-02T19:30:00Z,27.9396,-96.8429,2.0,237.6154232,23.24520166,-99999.0,'11111222,11111222,99999999' 
TABS,ioos:station:wmo:42048:1,2006-07-02T20:00:00Z,27.9396,-96.8429,2.0,243.4553343,24.70408063,-99999.0,'11111222,11111222,99999999' 
TABS,ioos:station:wmo:42048:1,2006-07-02T20:30:00Z,27.9396,-96.8429,2.0,240.2946113,23.18705889,-99999.0,'11111222,11111222,99999999' 
TABS,ioos:station:wmo:42048:1,2006-07-02T21:00:00Z,27.9396,-96.8429,2.0,240.2901489,22.09431149,-99999.0,'11111222,11111222,99999999' 
TABS,ioos:station:wmo:42048:1,2006-07-02T21:30:00Z,27.9396,-96.8429,2.0,241.840401,23.30885025,-99999.0,'11111222,11111222,99999999' 
TABS,ioos:station:wmo:42048:1,2006-07-02T22:00:00Z,27.9396,-96.8429,2.0,239.552875,21.66801329,-99999.0,'11111222,11111222,99999999' 
TABS,ioos:station:wmo:42048:1,2006-07-02T22:30:00Z,27.9396,-96.8429,2.0,243.6971112,19.52107835,-99999.0,'11111222,11111222,99999999' 
TABS,ioos:station:wmo:42048:1,2006-07-02T23:00:00Z,27.9396,-96.8429,2.0,244.240808,20.34128806,-99999.0,'11111222,11111222,99999999' 
TABS,ioos:station:wmo:42048:1,2006-07-02T23:30:00Z,27.9396,-96.8429,2.0,243.0038038,17.84432683,-99999.0,'11111222,11111222,99999999' 
TABS,ioos:station:wmo:42048:1,2006-07-03T00:00:00Z,27.9396,-96.8429,2.0,241.2178667,25.08956955,-99999.0,'11111222,11111222,99999999' 
TABS,ioos:station:wmo:42048:1,2006-07-03T00:30:00Z,27.9396,-96.8429,2.0,226.6906493,20.84751544,-99999.0,'11111222,11111222,99999999' 
TABS,ioos:station:wmo:42048:1,2006-07-03T01:00:00Z,27.9396,-96.8429,2.0,233.5725482,17.59852551,-99999.0,'11111222,11111222,99999999' 
TABS,ioos:station:wmo:42048:1,2006-07-03T01:30:00Z,27.9396,-96.8429,2.0,224.2222337,13.54941327,-99999.0,'11111222,11111222,99999999' 
TABS,ioos:station:wmo:42048:1,2006-07-03T02:00:00Z,27.9396,-96.8429,2.0,223.0709844,14.49683069,-99999.0,'11111222,11111222,99999999' 
TABS,ioos:station:wmo:42048:1,2006-07-03T02:30:00Z,27.9396,-96.8429,2.0,231.2436146,18.59407432,-99999.0,'11111222,11111222,99999999' 
TABS,ioos:station:wmo:42048:1,2006-07-03T03:00:00Z,27.9396,-96.8429,2.0,223.8656524,20.72228752,-99999.0,'11111222,11111222,99999999' 
TABS,ioos:station:wmo:42048:1,2006-07-03T03:30:00Z,27.9396,-96.8429,2.0,226.5776776,20.54217126,-99999.0,'11111222,11111222,99999999' 
TABS,ioos:station:wmo:42048:1,2006-07-03T04:00:00Z,27.9396,-96.8429,2.0,219.3796427,21.3725057,-99999.0,'11111222,11111222,99999999' 
TABS,ioos:station:wmo:42048:1,2006-07-03T04:30:00Z,27.9396,-96.8429,2.0,223.5368517,24.37484359,-99999.0,'11111222,11111222,99999999' 
TABS,ioos:station:wmo:42048:1,2006-07-03T05:00:00Z,27.9396,-96.8429,2.0,223.147656,23.62971011,-99999.0,'11111222,11111222,99999999' 
TABS,ioos:station:wmo:42048:1,2006-07-03T05:30:00Z,27.9396,-96.8429,2.0,219.2995263,23.20886899,-99999.0,'11111222,11111222,99999999' 
TABS,ioos:station:wmo:42048:1,2006-07-03T06:00:00Z,27.9396,-96.8429,2.0,226.4085913,23.58206946,-99999.0,'11111222,11111222,99999999' 
TABS,ioos:station:wmo:42048:1,2006-07-03T06:30:00Z,27.9396,-96.8429,2.0,229.3517217,22.64320869,-99999.0,'11111222,11111222,99999999' 
TABS,ioos:station:wmo:42048:1,2006-07-03T07:00:00Z,27.9396,-96.8429,2.0,224.771416,23.07307738,-99999.0,'11111222,11111222,99999999' 
TABS,ioos:station:wmo:42048:1,2006-07-03T07:30:00Z,27.9396,-96.8429,2.0,219.4187877,21.44922609,-99999.0,'11111222,11111222,99999999' 
TABS,ioos:station:wmo:42048:1,2006-07-03T08:00:00Z,27.9396,-96.8429,2.0,218.0587171,21.29858681,-99999.0,'11111222,11111222,99999999' 
TABS,ioos:station:wmo:42048:1,2006-07-03T08:30:00Z,27.9396,-96.8429,2.0,215.8177297,19.71932301,-99999.0,'11111222,11111222,99999999' 
TABS,ioos:station:wmo:42048:1,2006-07-03T09:00:00Z,27.9396,-96.8429,2.0,205.5777823,17.39471759,-99999.0,'11111222,11111222,99999999' 
TABS,ioos:station:wmo:42048:1,2006-07-03T09:30:00Z,27.9396,-96.8429,2.0,202.280275,13.76793376,-99999.0,'11111222,11111222,99999999' 
TABS,ioos:station:wmo:42048:1,2006-07-03T10:00:00Z,27.9396,-96.8429,2.0,207.6431575,19.00994477,-99999.0,'11111222,11111222,99999999' 
TABS,ioos:station:wmo:42048:1,2006-07-03T10:30:00Z,27.9396,-96.8429,2.0,206.2773952,16.9406641,-99999.0,'11111222,11111222,99999999' 
TABS,ioos:station:wmo:42048:1,2006-07-03T11:00:00Z,27.9396,-96.8429,2.0,193.1903694,11.83217647,-99999.0,'11111222,11111222,99999999' 
TABS,ioos:station:wmo:42048:1,2006-07-03T11:30:00Z,27.9396,-96.8429,2.0,189.8933773,21.18505369,-99999.0,'11111222,11111222,99999999' 
TABS,ioos:station:wmo:42048:1,2006-07-03T12:00:00Z,27.9396,-96.8429,2.0,185.4438799,21.6074663,-99999.0,'11111222,11111222,99999999' 
TABS,ioos:station:wmo:42048:1,2006-07-03T12:30:00Z,27.9396,-96.8429,2.0,189.1900512,28.7389109,-99999.0,'11111222,11111222,99999999' 
TABS,ioos:station:wmo:42048:1,2006-07-03T13:00:00Z,27.9396,-96.8429,2.0,194.0602883,28.60707954,-99999.0,'11111222,11111222,99999999' 
TABS,ioos:station:wmo:42048:1,2006-07-03T13:30:00Z,27.9396,-96.8429,2.0,196.4119764,31.35771038,-99999.0,'11111222,11111222,99999999' 
TABS,ioos:station:wmo:42048:1,2006-07-03T14:00:00Z,27.9396,-96.8429,2.0,194.8910956,27.62788446,-99999.0,'11111222,11111222,99999999' 
TABS,ioos:station:wmo:42048:1,2006-07-03T15:00:00Z,27.9396,-96.8429,2.0,196.9840347,25.60684479,-99999.0,'11111222,11111222,99999999' 
TABS,ioos:station:wmo:42048:1,2006-07-03T15:30:00Z,27.9396,-96.8429,2.0,196.5471997,23.13829078,-99999.0,'11111222,11111222,99999999' 
TABS,ioos:station:wmo:42048:1,2006-07-03T16:00:00Z,27.9396,-96.8429,2.0,196.3214973,27.18561568,-99999.0,'11111222,11111222,99999999' 
TABS,ioos:station:wmo:42048:1,2006-07-03T16:30:00Z,27.9396,-96.8429,2.0,199.1144758,27.4536646,-99999.0,'11111222,11111222,99999999' 
TABS,ioos:station:wmo:42048:1,2006-07-03T17:00:00Z,27.9396,-96.8429,2.0,201.4904042,31.49996349,-99999.0,'11111222,11111222,99999999' 
TABS,ioos:station:wmo:42048:1,2006-07-03T17:30:00Z,27.9396,-96.8429,2.0,207.0202998,30.3757074,-99999.0,'11111222,11111222,99999999' 
TABS,ioos:station:wmo:42048:1,2006-07-03T18:00:00Z,27.9396,-96.8429,2.0,213.4481166,29.59074517,-99999.0,'11111222,11111222,99999999' 
TABS,ioos:station:wmo:42048:1,2006-07-03T18:30:00Z,27.9396,-96.8429,2.0,223.2256625,32.66277545,-99999.0,'11111222,11111222,99999999' 
TABS,ioos:station:wmo:42048:1,2006-07-03T19:00:00Z,27.9396,-96.8429,2.0,233.3879156,25.30225682,-99999.0,'11111222,11111222,99999999' 
TABS,ioos:station:wmo:42048:1,2006-07-03T19:30:00Z,27.9396,-96.8429,2.0,241.3820055,25.4717412,-99999.0,'11111222,11111222,99999999' 
TABS,ioos:station:wmo:42048:1,2006-07-03T20:00:00Z,27.9396,-96.8429,2.0,244.6941858,25.43023791,-99999.0,'11111222,11111222,99999999' 
TABS,ioos:station:wmo:42048:1,2006-07-03T20:30:00Z,27.9396,-96.8429,2.0,247.6950467,25.16268865,-99999.0,'11111222,11111222,99999999' 
TABS,ioos:station:wmo:42048:1,2006-07-03T21:00:00Z,27.9396,-96.8429,2.0,245.0529213,30.08711518,-99999.0,'11111222,11111222,99999999' 
TABS,ioos:station:wmo:42048:1,2006-07-03T21:30:00Z,27.9396,-96.8429,2.0,241.3478176,28.7391162,-99999.0,'11111222,11111222,99999999' 
TABS,ioos:station:wmo:42048:1,2006-07-03T22:00:00Z,27.9396,-96.8429,2.0,243.4264084,31.31836841,-99999.0,'11111222,11111222,99999999' 
TABS,ioos:station:wmo:42048:1,2006-07-03T22:30:00Z,27.9396,-96.8429,2.0,243.6567433,25.37509015,-99999.0,'11111222,11111222,99999999' 
TABS,ioos:station:wmo:42048:1,2006-07-03T23:00:00Z,27.9396,-96.8429,2.0,246.9552288,24.39682356,-99999.0,'11111222,11111222,99999999' 
TABS,ioos:station:wmo:42048:1,2006-07-03T23:30:00Z,27.9396,-96.8429,2.0,248.6324815,26.70561364,-99999.0,'11111222,11111222,99999999' 
TABS,ioos:station:wmo:42048:1,2006-07-04T00:00:00Z,27.9396,-96.8429,2.0,255.9527286,26.12108727,-99999.0,'11111222,11111222,99999999' 
TABS,ioos:station:wmo:42048:1,2006-07-04T00:30:00Z,27.9396,-96.8429,2.0,244.791544,26.24985524,-99999.0,'11111222,11111222,99999999' 
TABS,ioos:station:wmo:42048:1,2006-07-04T01:00:00Z,27.9396,-96.8429,2.0,244.0838047,17.36641874,-99999.0,'11111222,11111222,99999999' 
TABS,ioos:station:wmo:42048:1,2006-07-04T01:30:00Z,27.9396,-96.8429,2.0,234.4354253,17.55455781,-99999.0,'11111222,11111222,99999999' 
TABS,ioos:station:wmo:42048:1,2006-07-04T02:00:00Z,27.9396,-96.8429,2.0,233.9560899,20.80216335,-99999.0,'11111222,11111222,99999999' 
TABS,ioos:station:wmo:42048:1,2006-07-04T02:30:00Z,27.9396,-96.8429,2.0,238.4223056,27.38474941,-99999.0,'11111222,11111222,99999999' 
TABS,ioos:station:wmo:42048:1,2006-07-04T03:00:00Z,27.9396,-96.8429,2.0,229.8755822,24.87410903,-99999.0,'11111222,11111222,99999999' 
TABS,ioos:station:wmo:42048:1,2006-07-04T03:30:00Z,27.9396,-96.8429,2.0,238.1041834,25.41773593,-99999.0,'11111222,11111222,99999999' 
TABS,ioos:station:wmo:42048:1,2006-07-04T04:00:00Z,27.9396,-96.8429,2.0,234.8552883,25.57159557,-99999.0,'11111222,11111222,99999999' 
TABS,ioos:station:wmo:42048:1,2006-07-04T04:30:00Z,27.9396,-96.8429,2.0,225.2089188,23.23568376,-99999.0,'11111222,11111222,99999999' 
TABS,ioos:station:wmo:42048:1,2006-07-04T05:00:00Z,27.9396,-96.8429,2.0,226.2888667,24.51452631,-99999.0,'11111222,11111222,99999999' 
TABS,ioos:station:wmo:42048:1,2006-07-04T05:30:00Z,27.9396,-96.8429,2.0,227.2599541,23.48714755,-99999.0,'11111222,11111222,99999999' 
TABS,ioos:station:wmo:42048:1,2006-07-04T06:00:00Z,27.9396,-96.8429,2.0,227.7905433,21.49325476,-99999.0,'11111222,11111222,99999999' 
TABS,ioos:station:wmo:42048:1,2006-07-04T06:30:00Z,27.9396,-96.8429,2.0,217.6163901,21.78985085,-99999.0,'11111222,11111222,99999999' 
TABS,ioos:station:wmo:42048:1,2006-07-04T07:00:00Z,27.9396,-96.8429,2.0,217.6184863,21.57584297,-99999.0,'11111222,11111222,99999999' 
TABS,ioos:station:wmo:42048:1,2006-07-04T07:30:00Z,27.9396,-96.8429,2.0,220.256432,21.4634876,-99999.0,'11111222,11111222,99999999' 
TABS,ioos:station:wmo:42048:1,2006-07-04T08:00:00Z,27.9396,-96.8429,2.0,229.1942996,18.27108371,-99999.0,'11111222,11111222,99999999' 
TABS,ioos:station:wmo:42048:1,2006-07-04T08:30:00Z,27.9396,-96.8429,2.0,226.9629756,19.19507489,-99999.0,'11111222,11111222,99999999' 
TABS,ioos:station:wmo:42048:1,2006-07-04T09:00:00Z,27.9396,-96.8429,2.0,227.5893698,21.44016091,-99999.0,'11111222,11111222,99999999' 
TABS,ioos:station:wmo:42048:1,2006-07-04T09:30:00Z,27.9396,-96.8429,2.0,227.3022375,13.55203675,-99999.0,'11111222,11111222,99999999' 
TABS,ioos:station:wmo:42048:1,2006-07-04T10:00:00Z,27.9396,-96.8429,2.0,227.1429477,17.58390457,-99999.0,'11111222,11111222,99999999' 
TABS,ioos:station:wmo:42048:1,2006-07-04T10:30:00Z,27.9396,-96.8429,2.0,226.3214651,16.24656579,-99999.0,'11111222,11111222,99999999' 
TABS,ioos:station:wmo:42048:1,2006-07-04T11:00:00Z,27.9396,-96.8429,2.0,235.190074,16.46664507,-99999.0,'11111222,11111222,99999999' 
TABS,ioos:station:wmo:42048:1,2006-07-04T11:30:00Z,27.9396,-96.8429,2.0,242.8390226,10.75606805,-99999.0,'11111222,11111222,99999999' 
TABS,ioos:station:wmo:42048:1,2006-07-04T12:00:00Z,27.9396,-96.8429,2.0,227.3992408,14.86227439,-99999.0,'11111222,11111222,99999999' 
TABS,ioos:station:wmo:42048:1,2006-07-04T12:30:00Z,27.9396,-96.8429,2.0,232.6705422,18.96460914,-99999.0,'11111222,11111222,99999999' 
TABS,ioos:station:wmo:42048:1,2006-07-04T13:00:00Z,27.9396,-96.8429,2.0,226.4594507,16.09897512,-99999.0,'11111222,11111222,99999999' 
TABS,ioos:station:wmo:42048:1,2006-07-04T13:30:00Z,27.9396,-96.8429,2.0,229.0055839,16.29619894,-99999.0,'11111222,11111222,99999999' 
TABS,ioos:station:wmo:42048:1,2006-07-04T14:00:00Z,27.9396,-96.8429,2.0,233.9240971,14.85942798,-99999.0,'11111222,11111222,99999999' 
TABS,ioos:station:wmo:42048:1,2006-07-04T14:30:00Z,27.9396,-96.8429,2.0,233.4935446,15.75031746,-99999.0,'11111222,11111222,99999999' 
TABS,ioos:station:wmo:42048:1,2006-07-04T15:00:00Z,27.9396,-96.8429,2.0,214.449455,17.57167323,-99999.0,'11111222,11111222,99999999' 
TABS,ioos:station:wmo:42048:1,2006-07-04T15:30:00Z,27.9396,-96.8429,2.0,225.9648328,16.37184473,-99999.0,'11111222,11111222,99999999' 
TABS,ioos:station:wmo:42048:1,2006-07-04T16:00:00Z,27.9396,-96.8429,2.0,222.3548233,16.08967681,-99999.0,'11111222,11111222,99999999' 
TABS,ioos:station:wmo:42048:1,2006-07-04T16:30:00Z,27.9396,-96.8429,2.0,213.8738231,13.81487966,-99999.0,'11111222,11111222,99999999' 